(243899) = 2001 DA12

Discovered at Socorro on 2001-02-17 by LINEAR.

Orbit

Orbit type: Main Belt

Note: WebGL enabled browser required.

epoch2024-03-31.0
epoch JD2460400.5
perihelion date2024-01-11.21479
perihelion JD2460320.71479
argument of perihelion (°)4.58495
ascending node (°)127.70358
inclination (°)6.70350
eccentricity0.1007577
perihelion distance (AU)2.8959671
Tisserand w.r.t. Jupiter3.2
ΔV w.r.t. Earth (km/sec)10.8
semimajor axis (AU)3.2204526
mean anomaly (°)13.60664
mean daily motion (°/day)0.17054090
aphelion distance (AU)3.545
period (years)5.78
P-vector [x]-0.67243201
P-vector [y]0.67531682
P-vector [z]0.30295608
Q-vector [x]-0.73437424
Q-vector [y]-0.65980178
Q-vector [z]-0.15923597
absolute magnitude15.2
phase slope0.15
uncertainty0
referenceMPEC 2024-E179
observations used618
oppositions18
arc length (days)10635
first opposition used1995
last opposition used2024
residual rms (arc-secs)0.65
perturbers coarse indicatorM-v
perturbers precise indicator003Ek
first observation date used1995-01-28.0
last observation date used2024-03-11.0
computer nameMPCLINUX
JD of orbit computation2456406.197479
perihelion JD uncertainty (days)2.7497E-04
argument of perihelion uncertainty (°)7.6902E-05
ascending node uncertainty (°)5.8385E-05
inclination uncertainty (°)5.7599E-06
eccentricity uncertainty 4.6802E-08
perihelion distance uncertainty (AU)1.5077E-07
Minimum Orbit Intersection Distances (in AU)
for orbit epoch: 2460400.5, reference: E2024-GB3
Mercury2.55495
Venus2.17825
Earth1.91101
Mars1.23908
Jupiter1.49305
Saturn6.00987
Uranus15.487
Neptune26.468

Observations

629 total observations over interval: 1995 01 28.24080 – 2024 03 11.276843
These data are available for download (format description).

Date (UT) J2000 RA J2000 Dec Magn Location Ref
1995 01 28.24080 09 48 51.91 +15 05 37.6   691 – Steward Observatory, Kitt Peak-Spacewatch MPS 35787
1995 01 28.27099 09 48 50.70 +15 05 48.1 18.8 V 691 – Steward Observatory, Kitt Peak-Spacewatch MPS 35787
1995 01 28.29317 09 48 49.77 +15 05 56.5   691 – Steward Observatory, Kitt Peak-Spacewatch MPS 35787
1999 12 06.28300 04 11 13.74 +12 09 53.6 18.5   704 – Lincoln Laboratory ETS, New Mexico MPS 35787
1999 12 06.29724 04 11 12.97 +12 09 53.7 19.2   704 – Lincoln Laboratory ETS, New Mexico MPS 35787
1999 12 06.31152 04 11 12.28 +12 09 52.5 18.7   704 – Lincoln Laboratory ETS, New Mexico MPS 35787
1999 12 06.34002 04 11 10.82 +12 09 50.7 19.3   704 – Lincoln Laboratory ETS, New Mexico MPS 35787
2001 02 01.33638 11 12 34.00 +09 45 02.9 18.9   704 – Lincoln Laboratory ETS, New Mexico MPS 27002
2001 02 01.35124 11 12 33.64 +09 45 08.5 19.6   704 – Lincoln Laboratory ETS, New Mexico MPS 27002
2001 02 01.36610 11 12 33.30 +09 45 13.6 19.1   704 – Lincoln Laboratory ETS, New Mexico MPS 27002
2001 02 01.38096 11 12 32.90 +09 45 18.6 18.9   704 – Lincoln Laboratory ETS, New Mexico MPS 27002
2001 02 01.39583 11 12 32.59 +09 45 23.2 19.2   704 – Lincoln Laboratory ETS, New Mexico MPS 27002
2001 02 17.30982 11 04 03.03 +11 23 14.0 19.1   704 – Lincoln Laboratory ETS, New Mexico MPS 27002
2001 02 17.32396 11 04 02.57 +11 23 19.5 19.5   704 – Lincoln Laboratory ETS, New Mexico MPS 27002
2001 02 17.33809 11 04 01.89 +11 23 25.4 19.7   704 – Lincoln Laboratory ETS, New Mexico MPS 27002
2001 02 17.35221 11 04 01.36 +11 23 30.0 19.8   704 – Lincoln Laboratory ETS, New Mexico MPS 27002
2001 02 17.36632 11 04 00.72 +11 23 35.6 19.4   704 – Lincoln Laboratory ETS, New Mexico MPS 27002
2001 02 19.30300 11 02 43.81 +11 36 23.0 18.7   704 – Lincoln Laboratory ETS, New Mexico MPS 27002
2001 02 19.31731 11 02 43.13 +11 36 28.0 18.9   704 – Lincoln Laboratory ETS, New Mexico MPS 27002
2001 02 19.33162 11 02 42.61 +11 36 34.3 19.0   704 – Lincoln Laboratory ETS, New Mexico MPS 27002
2001 02 19.34614 11 02 42.01 +11 36 40.4 18.7   704 – Lincoln Laboratory ETS, New Mexico MPS 27002
2001 02 19.36044 11 02 41.37 +11 36 46.4 18.9   704 – Lincoln Laboratory ETS, New Mexico MPS 27002
2001 02 20.35260 11 02 01.05 +11 43 20.3 18.6   704 – Lincoln Laboratory ETS, New Mexico MPS 27002
2001 02 20.36688 11 02 00.45 +11 43 25.4 19.1   704 – Lincoln Laboratory ETS, New Mexico MPS 27002
2001 02 20.38128 11 01 59.86 +11 43 30.8 19.5   704 – Lincoln Laboratory ETS, New Mexico MPS 27002
2001 02 20.39549 11 01 59.22 +11 43 36.8 19.1   704 – Lincoln Laboratory ETS, New Mexico MPS 27002
2001 02 20.40972 11 01 58.67 +11 43 42.5 19.0   704 – Lincoln Laboratory ETS, New Mexico MPS 27002
2001 03 20.36531 10 42 34.39 +14 26 28.1 20.3   608 – Haleakala-AMOS MPS 28015
2001 03 20.37609 10 42 34.03 +14 26 31.2 20.1   608 – Haleakala-AMOS MPS 28015
2001 03 20.38640 10 42 33.61 +14 26 33.5 20.1   608 – Haleakala-AMOS MPS 28015
2004 09 12.25594 00 33 32.50 -04 36 21.9 19.3   704 – Lincoln Laboratory ETS, New Mexico MPS 112699
2004 09 12.26768 00 33 32.11 -04 36 25.9 19.9   704 – Lincoln Laboratory ETS, New Mexico MPS 112699
2004 09 12.27942 00 33 31.68 -04 36 30.8 19.4   704 – Lincoln Laboratory ETS, New Mexico MPS 112699
2004 09 14.34251 00 32 15.55 -04 48 23.4 19.3 R 699 – Lowell Observatory-LONEOS MPS 120407
2004 09 14.35873 00 32 14.83 -04 48 29.2   699 – Lowell Observatory-LONEOS MPS 120407
2004 09 14.37497 00 32 14.21 -04 48 33.7   699 – Lowell Observatory-LONEOS MPS 120407
2004 09 14.39123 00 32 13.73 -04 48 39.0   699 – Lowell Observatory-LONEOS MPS 120407
2004 09 17.23446 00 30 24.73 -05 05 06.1 19.4 C 704 – Lincoln Laboratory ETS, New Mexico MPS 289409
2004 09 17.24676 00 30 24.27 -05 05 10.7 19.3 C 704 – Lincoln Laboratory ETS, New Mexico MPS 289409
2004 09 17.25883 00 30 23.70 -05 05 14.4 19.1 C 704 – Lincoln Laboratory ETS, New Mexico MPS 289409
2005 12 27.26264 05 29 18.63 +16 35 58.0 19.1 V 703 – Catalina Sky Survey MPS 156399
2005 12 27.27124 05 29 18.20 +16 35 58.6 19.4 V 703 – Catalina Sky Survey MPS 156399
2005 12 27.27987 05 29 17.73 +16 35 59.1 19.2 V 703 – Catalina Sky Survey MPS 156399
2005 12 27.28846 05 29 17.37 +16 35 59.8 19.3 V 703 – Catalina Sky Survey MPS 156399
2005 12 30.27107 05 26 53.80 +16 41 00.3 19.8   704 – Lincoln Laboratory ETS, New Mexico MPS 157583
2005 12 30.28456 05 26 53.13 +16 41 00.6 20.1   704 – Lincoln Laboratory ETS, New Mexico MPS 157583
2005 12 30.29798 05 26 52.50 +16 41 02.0 20.0   704 – Lincoln Laboratory ETS, New Mexico MPS 157583
2005 12 30.31103 05 26 51.88 +16 41 04.7 20.3   704 – Lincoln Laboratory ETS, New Mexico MPS 157583
2005 12 30.32431 05 26 51.25 +16 41 04.7 19.9   704 – Lincoln Laboratory ETS, New Mexico MPS 157583
2007 03 11.25677 12 17 04.20 +06 23 43.1 19.7 V 691 – Steward Observatory, Kitt Peak-Spacewatch MPS 202883
2007 03 11.27437 12 17 03.48 +06 23 50.0 19.7 V 691 – Steward Observatory, Kitt Peak-Spacewatch MPS 202883
2007 03 11.29196 12 17 02.76 +06 23 56.6 19.7 V 691 – Steward Observatory, Kitt Peak-Spacewatch MPS 202883
2007 03 16.32354 12 13 37.53 +06 55 42.4 19.2   704 – Lincoln Laboratory ETS, New Mexico MPS 204480
2007 03 16.33429 12 13 37.09 +06 55 46.6 19.9   704 – Lincoln Laboratory ETS, New Mexico MPS 204480
2007 03 16.34491 12 13 36.58 +06 55 49.6 19.6   704 – Lincoln Laboratory ETS, New Mexico MPS 204480
2007 03 16.36632 12 13 35.63 +06 55 59.0 19.7   704 – Lincoln Laboratory ETS, New Mexico MPS 204480
2007 03 20.31951 12 10 48.54 +07 20 12.3 19.2 V 703 – Catalina Sky Survey MPS 204480
2007 03 20.32722 12 10 48.14 +07 20 14.8 19.2 V 703 – Catalina Sky Survey MPS 204480
2007 03 20.33410 12 10 47.89 +07 20 17.8 19.3 V 703 – Catalina Sky Survey MPS 204480
2007 03 20.34098 12 10 47.53 +07 20 19.8 19.2 V 703 – Catalina Sky Survey MPS 204480
2007 04 17.15983 11 53 07.13 +09 24 05.3 18.8 R 699 – Lowell Observatory-LONEOS MPS 206794
2007 04 17.18532 11 53 06.30 +09 24 07.2   699 – Lowell Observatory-LONEOS MPS 206794
2007 04 17.21077 11 53 05.77 +09 24 08.6   699 – Lowell Observatory-LONEOS MPS 206794
2008 06 04.29269 16 55 06.16 -14 50 13.2 19.4 V G96 – Mt. Lemmon Survey MPS 250916
2008 06 04.29816 16 55 05.88 -14 50 13.0 19.4 V G96 – Mt. Lemmon Survey MPS 250916
2008 06 04.30366 16 55 05.62 -14 50 12.9 19.8 V G96 – Mt. Lemmon Survey MPS 250916
2008 06 04.30909 16 55 05.34 -14 50 12.6 19.6 V G96 – Mt. Lemmon Survey MPS 250916
2009 06 22.42836 21 31 16.86 -14 38 23.0 21.2 V G96 – Mt. Lemmon Survey MPS 288994
2009 06 22.43497 21 31 16.78 -14 38 23.6 20.8 V G96 – Mt. Lemmon Survey MPS 288994
2009 06 22.44137 21 31 16.68 -14 38 24.1 20.4 V G96 – Mt. Lemmon Survey MPS 288994
2009 06 22.44769 21 31 16.60 -14 38 25.3 20.5 V G96 – Mt. Lemmon Survey MPS 288994
2010 07 14.043235 01 27 59.287 +02 58 12.43   C51 – WISE MPS 903709
2010 07 14.307843 01 28 09.43 +02 58 36.1   C51 – WISE MPS 339787
2010 07 14.440019 01 28 14.59 +02 58 46.9   C51 – WISE MPS 339787
2010 07 14.440146 01 28 14.54 +02 58 46.9   C51 – WISE MPS 339787
2010 07 14.572450 01 28 19.781 +02 58 59.34   C51 – WISE MPS 903709
2010 07 14.638538 01 28 22.03 +02 59 03.9   C51 – WISE MPS 346198
2010 07 14.70463 01 28 24.71 +02 59 10.0   C51 – WISE MPS 339787
2010 07 14.770841 01 28 27.098 +02 59 15.68   C51 – WISE MPS 903709
2010 07 14.903146 01 28 32.36 +02 59 29.0   C51 – WISE MPS 339787
2010 07 15.035449 01 28 37.36 +02 59 39.5   C51 – WISE MPS 339787
2010 09 05.11296 01 40 14.92 +01 48 50.9 20.1   A77 – Observatoire Chante-Perdrix, Dauban MPS 347837
2010 09 05.13368 01 40 14.57 +01 48 44.7 20.3   A77 – Observatoire Chante-Perdrix, Dauban MPS 347837
2010 09 05.15441 01 40 14.26 +01 48 39.8 20.2   A77 – Observatoire Chante-Perdrix, Dauban MPS 347837
2010 09 28.462041 01 29 38.408 -00 05 32.38 20.29 r F51 – Pan-STARRS 1, Haleakala MPS 365299
2010 09 28.473509 01 29 37.949 -00 05 36.07 20.23 r F51 – Pan-STARRS 1, Haleakala MPS 365299
2010 10 04.29734 01 25 49.70 -00 36 40.2 19.6   704 – Lincoln Laboratory ETS, New Mexico MPS 350955
2010 10 04.31132 01 25 49.08 -00 36 44.8 19.7   704 – Lincoln Laboratory ETS, New Mexico MPS 350955
2010 10 04.33790 01 25 47.98 -00 36 52.5 19.4   704 – Lincoln Laboratory ETS, New Mexico MPS 350955
